Etusivu
METAR-TAF:

METAR-TAF

Lentoasemat :

Lowell, Idaho, Yhdysvallat

Leveyspiiri: 46-08-39N, Pituuspiiri: 115-35-47W, korkeus merenpinnasta: 480 m

Tämänhetkinen sää

Tämä raportti tehtiin 18 minuuttia sitten, kello 05.52 UTC
Tuuli 3 kn pohjoisesta
Lämpötila 2°C
Kosteus 93%
Ilmanpaine 1033 hPa

METAR: KP69 270552Z AUTO 36003KT 02/01 A3049 RMK AO1 SLP345 T00220011 10050 20022 53006

Aika: 22:10 (06:10 UTC)


TAF: puuttuu

Säähavainnot ja -ennusteet yli 4000 lentoasemalta (METAR- ja TAF-raportit).

Käytössä olevat sääasemat on merkitty karttaan keltaisilla ja punaisilla pisteillä.

Aseta hiiri pisteen päälle nähdäksesi sääaseman nimen.

Klikkaa sitten nähdäksesi säähavainnot ja -ennusteet.

Kartan vaihtaminen: klikkaa mustalla rastilla varustettuja vihreitä pisteitä, niin voit zoomata sisään; viivalla varustettua vihreää pistettä, niin voit zoomata ulos tai vihreitä nuolia, niin pääset viereisille kartoille.


METAR-TAF: